Location: Newark
(41.0400°S, 62.7845°W)
Time: 07:48:35
(UTC+00:00)

DIWATA 2B (PO-101) - Visible Passes

Search period start: 29 January 2022 00:00
Search period end: 08 February 2022 00:00
Orbit: 584 x 599 km, 97.9° (Epoch: 28 January)

Date Brightness Start Highest point End Pass type
(mag) Time Alt. Az. Time Alt. Az. Time Alt. Az.
29 Jan ? 06:44:04 10° SSE 06:48:20 88° E 06:48:49 70° N visible
30 Jan ? 06:52:42 10° S 06:56:57 74° WSW 06:57:28 65° NW visible
31 Jan ? 05:28:14 10° ESE 05:29:31 11° E 05:29:31 11° E visible
31 Jan ? 07:01:22 10° S 07:05:33 59° WSW 07:06:06 54° WNW visible
01 Feb ? 05:36:02 10° ESE 05:38:10 14° E 05:38:10 14° E visible
01 Feb ? 07:10:04 10° S 07:14:09 47° WSW 07:14:44 43° W visible
02 Feb ? 05:44:09 10° SE 05:46:47 18° E 05:46:47 18° E visible
02 Feb ? 07:18:47 10° S 07:22:43 38° WSW 07:23:22 35° W visible
03 Feb ? 05:52:25 10° SE 05:55:25 22° E 05:55:25 22° E visible
03 Feb ? 07:27:33 10° S 07:31:17 31° WSW 07:32:00 29° W visible
04 Feb ? 06:00:47 10° SE 06:04:03 26° E 06:04:03 26° E visible
04 Feb ? 07:36:21 10° SSW 07:39:50 25° WSW 07:40:38 24° W visible
05 Feb ? 06:09:13 10° SSE 06:12:41 33° E 06:12:41 33° E visible
05 Feb ? 07:45:13 10° SSW 07:48:22 21° WSW 07:49:15 19° W visible
06 Feb ? 06:17:41 10° SSE 06:21:18 40° E 06:21:18 40° E visible
06 Feb ? 07:54:10 10° SSW 07:56:54 17° WSW 07:57:53 16° W visible
07 Feb ? 06:26:12 10° SSE 06:29:56 50° ESE 06:29:56 50° ESE visible
07 Feb ? 08:03:13 10° SSW 08:05:25 14° WSW 08:06:30 13° W visible
